STARLINK-2109, 47388

Orbit data source: Space-Track

STARLINK-2109, 47388 is a payload satellite owned by SpaceX/Seattle (US) in LEO that was launched on Wed, 20 Jan 2021 UTC via an FALCON 9 launch vehicle from the Air Force Eastern Test Range (AFETR). Payload-class satellites include a variety of spacecraft equipped with specific instruments for various scientific and technological missions. These include communications satellites like Starlink; space stations such as the ISS; scientific satellites like the Hubble; Earth observation satellites from companies like Planet Labs, Umbra, and HawkEye 360; GPS; miniature CubeSats for education and research; and military/defense satellites.

Loading next visibility...
Identifier
47388, 2021-005AR
Orbit
LEO
Country
Flag of USUS
Related business
Manufacturer
SpaceX/Seattle
Mission
Operational Commercial Communications
Bus & Motor
STARLINK, Unknown motor
Mass
260 kg wet, ~248 kg dry
Launch date (UTC)
2021-01-20 (5 years ago)
Launch vehicle
FALCON 9
Launch site
Air Force Eastern Test Range (AFETR)
Object type
Payload
Rocket body
Debris
Shape & HBR
Box + 1 Pan, 10.1 m
Radar Cross Section
13.562 m², Large (>1 m²)

Expand to show TLE details & history
Last TLE update: 3 days ago

TLE from 3 days ago
0 STARLINK-2109
1 47388U 21005AR  26170.70065103 -.00000413  00000-0 -15744-5 0  9992
2 47388  53.1605 311.7092 0000316  21.4691 338.6324 15.31694389298599
Epoch: 2026-06-19T16:48Z
TLE epoch observation values (Epoch: 2026-06-19T16:48:56.248Z)
Latitude
-0.00002°
Longitude
151.54896°
Altitude
471.456 km
Speed
7.632 km/s
True Right ascension
20h 46m 50s
True Declination
0° 00' 00"
Sunlit
Object was in full shadow at epoch
Visualization orbit readout
Latitude
Unknown
Longitude
Unknown
Altitude
Unknown
Speed
Unknown
Apparent Right ascension
Unknown
Apparent Declination
Unknown
Sunlit
N/A
Visualization observer readout
Local Sidereal Time
21:27:44
Azimuth
Unknown
Elevation
Unknown
Doppler factor
Unknown
Orbital elements
Apogee altitude
471.23 km
Perigee altitude
470.797 km
Semi-major axis
6,849.15 km
Eccentricity
0.00003
Inclination
53.1605°
RAAN
311.7092°
Arg. of periapsis
21.4691°
True anomaly
338.63108°
Mean anomaly
338.6324°
Eccentric anomaly
338.63174°
Mean motion
3.82902 °/min
Orbital period
94.02 mins
BSTAR
-0.0000015744
Loading maneuver chart data...
Computing Atmospheric mass density...

Documentation

Showing up to 5 results
|